SL-16 DEB, 39862

Orbit data source: Space-Track

SL-16 DEB, 39862 is space debris in LEO originally from a launch on Fri, 25 Dec 1992 UTC launched from the Tyuratam Missile And Space Complex (TTMTR). Debris objects in space refer to the collection of defunct objects orbiting the Earth. Examples of debris include non-operational satellites, rocket bodies, and fragments generated from explosions, collisions, or faulty payload assembly.

Loading next visibility...
Identifier
39862, 1992-093LQ
Orbit
LEO
Country
Flag of CISCIS
Related business
Manufacturer
Unknown
Mission
Spacecraft
Bus & Motor
Unknown
Mass
Unknown
Launch date (UTC)
1992-12-25 (33 years ago)
Launch vehicle
Unknown
Launch site
Tyuratam Missile And Space Complex (TTMTR)
Object type
Payload
Rocket body
Debris
Shape & HBR
Unknown shape, 0.1 m
Radar Cross Section
Small (<0.1 m²)

Expand to show TLE details & history
Last TLE update: 2 weeks ago

TLE from 2 weeks ago
0 SL-16 DEB
1 39862U 92093LQ  26119.30039052  .00002548  00000-0  42229-3 0  9993
2 39862  70.8275 127.1445 0063618 152.3850 208.0704 14.69992453621373
Epoch: 2026-04-29T07:12Z
TLE epoch observation values (Epoch: 2026-04-29T07:12:33.740Z)
Latitude
-0.00009°
Longitude
161.74056°
Altitude
703.126 km
Speed
7.484 km/s
True Right ascension
08h 28m 34s
True Declination
0° 00' 00"
Sunlit
Object was in daylight at epoch
Visualization orbit readout
Latitude
Unknown
Longitude
Unknown
Altitude
Unknown
Speed
Unknown
Apparent Right ascension
Unknown
Apparent Declination
Unknown
Sunlit
N/A
Visualization observer readout
Local Sidereal Time
19:33:36
Azimuth
Unknown
Elevation
Unknown
Doppler factor
Unknown
Orbital elements
Apogee altitude
703.749 km
Perigee altitude
614.212 km
Semi-major axis
7,037.118 km
Eccentricity
0.00636
Inclination
70.8275°
RAAN
127.1445°
Arg. of periapsis
152.385°
True anomaly
207.72975°
Mean anomaly
208.0704°
Eccentric anomaly
207.89984°
Mean motion
3.67664 °/min
Orbital period
97.92 mins
BSTAR
0.00042229
Loading maneuver chart data...
Computing Atmospheric mass density...
Loading historical data...
Loading historical data...
Loading historical data...
Loading historical data...
Loading historical data...
Loading historical data...
Loading historical data...

Documentation

Showing up to 5 results
|